Hourly Data Report for November 09, 2020

VANCOUVER INTL A
BRITISH COLUMBIA
Current Station Operator: NAVCAN

49°11'41.000" N
123°11'02.000" W
4.30 m
1108395
71892
YVR

Download Data

Hourly Data (November 2020)
Hourly Data Report for November 9, 2020
TIME
LST
Temp Definition
°C
Dew Point Definition
°C
Rel Hum Definition
%
Precip. Amount Definition
mm

Wind Dir Definition
10's deg

Wind Spd Definition
km/h
Visibility Definition
km
Stn Press Definition
kPa
Hmdx Definition


Wind Chill Definition


Weather Definition


00:00 -0.1 -4.9 70   1 7 24.1 102.32   -3 LegendNANA
01:00 -0.1 -3.7 77   17 8 24.1 102.32   -3 Clear
02:00 -0.2 -3.3 79   10 7 24.1 102.31   -3 LegendNANA
03:00 0.6 -2.5 80   8 8 24.1 102.29     LegendNANA
04:00 0.9 -2.4 78   10 14 24.1 102.24     Mostly Cloudy
05:00 2.0 -3.0 70   7 13 24.1 102.24     LegendNANA
06:00 2.5 -5.1 57   8 14 24.1 102.22     LegendNANA
07:00 2.9 -5.8 53   7 16 40.2 102.21     Mostly Cloudy
08:00 3.1 -4.7 56   9 15 32.2 102.20     LegendNANA
09:00 3.9 -3.6 58   8 17 24.1 102.22     LegendNANA
10:00 4.3 -2.3 62   7 16 32.2 102.24     Cloudy
11:00 4.1 -0.4 72   6 18 24.1 102.24     Rain
12:00 3.2 1.0 85   6 22 19.3 102.18     Rain
13:00 3.5 1.2 85   7 26 24.1 102.11     Cloudy
14:00 3.9 1.1 82   8 22 32.2 102.04     LegendNANA
15:00 4.1 0.6 78   8 23 24.1 101.98     LegendNANA
16:00 3.9 0.9 81   7 21 24.1 101.93     Rain
17:00 3.5 1.1 84   7 22 24.1 101.87     Rain
18:00 2.8 1.4 90   7 21 16.1 101.83     Rain
19:00 2.4 1.3 92   8 24 19.3 101.70     Rain
20:00 2.5 1.4 92   7 21 24.1 101.64     Rain
21:00 2.9 1.5 90   5 21 11.3 101.56     Rain
22:00 2.8 1.6 92   4 15 9.7 101.50     Rain, Fog
23:00 2.7 1.6 93   4 17 9.7 101.40     Rain, Fog

Notes on Data Quality.

Legend

  • E = Estimated
  • M = Missing
  • NA = Not Available*
  • [empty] = Indicates an unobserved value
Date modified: